KF0EZB Weather Reports


Display with metric or nautical units.
time (UTC)temp
F
wind
direction
speed
MPH
gust
MPH
rain 1hr
in
rain 24hr
in
rain mn
in
humidity
%
barometer
mb
20260902222656 103 91 3.0 6.0 0.00 0.00 0.00 27 1009.9
20260902222155 103 150 2.0 9.0 0.00 0.00 0.00 27 1010.3
20260902221649 103 168 3.0 7.0 0.00 0.00 0.00 27 1010.4
20260902221149 103 182 4.0 6.0 0.00 0.00 0.00 27 1010.3
20260902220645 103 185 3.0 10.0 0.00 0.00 0.00 27 1010.0
20260902220139 103 225 3.0 7.0 0.00 0.00 0.00 27 1010.2
20260902215635 103 231 0.0 6.0 0.00 0.00 0.00 27 1010.2
20260902215130 104 171 4.0 10.0 0.00 0.00 0.00 26 1010.2
20260902214625 104 119 3.0 11.0 0.00 0.00 0.00 27 1010.5
20260902214124 103 141 3.0 8.0 0.00 0.00 0.00 27 1010.4
20260902213620 103 124 3.0 9.0 0.00 0.00 0.00 27 1010.6
20260902213119 103 230 3.0 8.0 0.00 0.00 0.00 27 1010.4
20260902212615 104 214 4.0 11.0 0.00 0.00 0.00 27 1010.7
20260902212111 104 163 3.0 11.0 0.00 0.00 0.00 27 1010.7
20260902211607 104 186 2.0 6.0 0.00 0.00 0.00 26 1010.6
20260902211102 104 293 6.0 8.0 0.00 0.00 0.00 27 1010.6
20260902210601 104 220 0.0 7.0 0.00 0.00 0.00 27 1010.8
20260902210056 104 249 3.0 7.0 0.00 0.00 0.00 27 1010.8
20260902205555 104 193 7.0 11.0 0.00 0.00 0.00 26 1011.1
20260902205050 103 123 3.0 6.0 0.00 0.00 0.00 27 1011.0
20260902204545 103 263 3.0 10.0 0.00 0.00 0.00 27 1011.3
20260902204040 103 249 4.0 13.0 0.00 0.00 0.00 27 1011.2
20260902203535 103 226 6.0 11.0 0.00 0.00 0.00 27 1011.2
20260902203034 102 116 1.0 5.0 0.00 0.00 0.00 27 1011.3
20260902202530 103 188 7.0 13.0 0.00 0.00 0.00 27 1011.5
20260902202026 103 204 2.0 7.0 0.00 0.00 0.00 27 1011.6
20260902201521 103 141 6.0 13.0 0.00 0.00 0.00 27 1011.4
20260902201015 102 243 7.0 11.0 0.00 0.00 0.00 28 1011.6
20260902200511 102 71 4.0 10.0 0.00 0.00 0.00 28 1011.9
20260902200007 102 253 4.0 11.0 0.00 0.00 0.00 27 1012.0
20260902195502 102 214 4.0 7.0 0.00 0.00 0.00 27 1012.0
20260902195001 103 254 3.0 9.0 0.00 0.00 0.00 28 1011.9
20260902194455 102 208 7.0 10.0 0.00 0.00 0.00 28 1012.3
20260902193950 102 192 5.0 13.0 0.00 0.00 0.00 29 1012.0
20260902193446 103 132 2.0 3.0 0.00 0.00 0.00 29 1012.1
20260902192945 102 163 2.0 7.0 0.00 0.00 0.00 30 1012.3
20260902192444 102 102 2.0 7.0 0.00 0.00 0.00 30 1012.3
20260902191943 101 284 4.0 9.0 0.00 0.00 0.00 30 1012.6
20260902191438 102 296 5.0 9.0 0.00 0.00 0.00 31 1012.6
20260902190934 101 195 5.0 7.0 0.00 0.00 0.00 32 1012.6
20260902190429 100 218 3.0 6.0 0.00 0.00 0.00 32 1012.8
20260902185924 102 190 4.0 9.0 0.00 0.00 0.00 32 1012.6
20260902185421 101 176 2.0 6.0 0.00 0.00 0.00 32 1012.8
20260902184915 100 217 3.0 8.0 0.00 0.00 0.00 33 1013.1
20260902184410 100 182 2.0 7.0 0.00 0.00 0.00 34 1012.9
20260902183906 100 165 3.0 9.0 0.00 0.00 0.00 33 1013.3
20260902183402 100 315 3.0 5.0 0.00 0.00 0.00 34 1013.3
20260902182858 100 238 4.0 8.0 0.00 0.00 0.00 34 1013.3
20260902182354 99 121 2.0 13.0 0.00 0.00 0.00 34 1013.2
20260902181850 101 248 7.0 10.0 0.00 0.00 0.00 34 1013.2
20260902181345 99 205 5.0 6.0 0.00 0.00 0.00 35 1013.3
20260902180839 99 305 3.0 9.0 0.00 0.00 0.00 35 1013.5
20260902180335 98 196 5.0 9.0 0.00 0.00 0.00 36 1013.5
20260902175830 98 239 3.0 8.0 0.00 0.00 0.00 35 1013.5
20260902175325 99 178 5.0 8.0 0.00 0.00 0.00 35 1013.5
20260902174821 97 183 3.0 7.0 0.00 0.00 0.00 36 1013.7
20260902174317 97 263 5.0 9.0 0.00 0.00 0.00 37 1013.9
20260902173813 97 206 4.0 7.0 0.00 0.00 0.00 37 1013.7
20260902173307 96 200 5.0 9.0 0.00 0.00 0.00 38 1014.0
20260902172806 96 214 3.0 9.0 0.00 0.00 0.00 37 1013.8
20260902172301 97 175 5.0 9.0 0.00 0.00 0.00 38 1013.7
20260902171756 97 249 3.0 9.0 0.00 0.00 0.00 37 1014.1
20260902171251 97 200 4.0 9.0 0.00 0.00 0.00 37 1014.0
20260902170748 95 11 3.0 5.0 0.00 0.00 0.00 38 1014.0
20260902170243 96 126 5.0 10.0 0.00 0.00 0.00 38 1014.1
20260902165738 95 201 2.0 5.0 0.00 0.00 0.00 39 1014.1
20260902165238 95 60 6.0 9.0 0.00 0.00 0.00 38 1014.2
20260902164732 95 152 0.0 9.0 0.00 0.00 0.00 39 1014.4
20260902164227 95 110 4.0 6.0 0.00 0.00 0.00 39 1014.3
20260902163722 95 186 3.0 10.0 0.00 0.00 0.00 39 1014.4
20260902163222 94 120 3.0 5.0 0.00 0.00 0.00 40 1014.6
20260902162720 94 261 2.0 9.0 0.00 0.00 0.00 40 1014.6
20260902162215 94 262 5.0 8.0 0.00 0.00 0.00 40 1014.8
20260902161710 93 186 3.0 13.0 0.00 0.00 0.00 40 1014.6
20260902161206 93 100 4.0 7.0 0.00 0.00 0.00 42 1014.4
20260902160703 93 100 4.0 7.0 0.00 0.00 0.00 42 1014.4
20260902160156 93 100 4.0 7.0 0.00 0.00 0.00 42 1014.4
20260902155655 92 279 2.0 6.0 0.00 0.00 0.00 43 1014.5
20260902155153 91 301 5.0 8.0 0.00 0.00 0.00 43 1014.4
20260902154649 91 249 3.0 9.0 0.00 0.00 0.00 44 1014.4
20260902154149 91 150 2.0 6.0 0.00 0.00 0.00 44 1014.5
20260902153649 90 82 0.0 6.0 0.00 0.00 0.00 45 1014.6
20260902153143 90 193 2.0 9.0 0.00 0.00 0.00 46 1014.4
20260902152640 90 123 6.0 10.0 0.00 0.00 0.00 46 1014.5
20260902152135 89 74 4.0 7.0 0.00 0.00 0.00 47 1014.4
20260902151630 89 222 4.0 9.0 0.00 0.00 0.00 47 1014.4
20260902151125 89 172 2.0 9.0 0.00 0.00 0.00 48 1014.4
20260902150621 88 208 3.0 7.0 0.00 0.00 0.00 48 1014.5
20260902150116 87 138 1.0 11.0 0.00 0.00 0.00 50 1014.5
20260902145616 87 249 2.0 5.0 0.00 0.00 0.00 50 1014.4
20260902145115 87 248 8.0 9.0 0.00 0.00 0.00 50 1014.5
20260902144613 86 160 1.0 7.0 0.00 0.00 0.00 51 1014.4
20260902144112 86 280 1.0 8.0 0.00 0.00 0.00 52 1014.3
20260902143607 86 215 5.0 8.0 0.00 0.00 0.00 52 1014.3
20260902143103 85 212 2.0 7.0 0.00 0.00 0.00 52 1014.4
20260902142558 84 218 0.0 7.0 0.00 0.00 0.00 53 1014.3
20260902142054 85 166 3.0 7.0 0.00 0.00 0.00 54 1014.5
20260902141548 84 199 2.0 7.0 0.00 0.00 0.00 55 1014.6
20260902141043 83 179 1.0 3.0 0.00 0.00 0.00 55 1014.4
20260902140544 83 164 1.0 2.0 0.00 0.00 0.00 55 1014.6
20260902140039 82 166 1.0 2.0 0.00 0.00 0.00 56 1014.6
20260902135538 81 285 3.0 6.0 0.00 0.00 0.00 57 1014.6
20260902135033 81 192 1.0 3.0 0.00 0.00 0.00 57 1014.6
20260902134529 80 227 4.0 7.0 0.00 0.00 0.00 58 1014.7
20260902134024 80 172 0.0 3.0 0.00 0.00 0.00 58 1014.5
20260902133523 79 262 6.0 8.0 0.00 0.00 0.00 59 1014.3
20260902133018 79 152 2.0 3.0 0.00 0.00 0.00 60 1014.7
20260902132513 78 217 4.0 7.0 0.00 0.00 0.00 60 1014.4
20260902132009 78 250 3.0 5.0 0.00 0.00 0.00 60 1014.5
20260902131505 77 169 1.0 3.0 0.00 0.00 0.00 61 1014.5
20260902131004 76 229 0.0 6.0 0.00 0.00 0.00 62 1014.4
20260902130500 76 229 0.0 6.0 0.00 0.00 0.00 62 1014.4
20260902125955 76 171 1.0 6.0 0.00 0.00 0.00 62 1014.6
20260902124617 75 166 0.0 2.0 0.00 0.00 0.00 63 1014.4
20260902124117 75 166 0.0 2.0 0.00 0.00 0.00 63 1014.4
20260902123613 75 90 0.0 2.0 0.00 0.00 0.00 63 1014.2
20260902123108 75 108 1.0 7.0 0.00 0.00 0.00 63 1014.4
20260902122607 74 258 0.0 1.0 0.00 0.00 0.00 63 1014.3
20260902122103 74 167 1.0 2.0 0.00 0.00 0.00 63 1014.3
20260902121603 74 233 0.0 2.0 0.00 0.00 0.00 63 1014.2
20260902121058 74 213 1.0 3.0 0.00 0.00 0.00 64 1014.3
20260902120554 74 215 0.0 7.0 0.00 0.00 0.00 63 1014.3
20260902120050 74 197 0.0 3.0 0.00 0.00 0.00 63 1014.0
20260902115545 74 176 0.0 3.0 0.00 0.00 0.00 63 1014.2
20260902115041 74 206 0.0 3.0 0.00 0.00 0.00 63 1014.1
20260902114537 74 195 2.0 3.0 0.00 0.00 0.00 62 1014.3
20260902114036 74 195 2.0 3.0 0.00 0.00 0.00 62 1014.3
20260902113532 74 250 1.0 3.0 0.00 0.00 0.00 62 1014.3
20260902113027 74 183 1.0 6.0 0.00 0.00 0.00 62 1014.1
20260902112523 74 202 0.0 2.0 0.00 0.00 0.00 61 1014.1
20260902112019 74 236 0.0 2.0 0.00 0.00 0.00 61 1014.1
20260902111515 74 197 0.0 3.0 0.00 0.00 0.00 61 1013.8
20260902111010 74 237 0.0 2.0 0.00 0.00 0.00 61 1014.1
20260902110507 74 146 0.0 5.0 0.00 0.00 0.00 60 1014.2
20260902110002 75 316 3.0 3.0 0.00 0.00 0.00 60 1014.2
20260902105457 75 202 2.0 3.0 0.00 0.00 0.00 59 1014.1
20260902104951 75 188 0.0 6.0 0.00 0.00 0.00 58 1014.1
20260902104447 75 191 2.0 3.0 0.00 0.00 0.00 58 1014.3
20260902103946 75 173 3.0 6.0 0.00 0.00 0.00 58 1014.2
20260902103442 75 164 1.0 3.0 0.00 0.00 0.00 58 1014.3
20260902102937 75 188 0.0 1.0 0.00 0.00 0.00 57 1014.3
20260902102434 75 247 0.0 7.0 0.00 0.00 0.00 56 1014.3
20260902101930 76 99 0.0 6.0 0.00 0.00 0.00 56 1014.2
20260902101430 76 181 0.0 0.0 0.00 0.00 0.00 56 1014.2
20260902100924 76 204 2.0 3.0 0.00 0.00 0.00 56 1014.3
20260902100424 76 171 0.0 1.0 0.00 0.00 0.00 55 1014.2
20260902095919 76 177 0.0 2.0 0.00 0.00 0.00 55 1014.0
20260902095413 76 112 1.0 5.0 0.00 0.00 0.00 55 1014.1
20260902094913 76 242 1.0 3.0 0.00 0.00 0.00 55 1014.0
20260902094409 76 317 0.0 3.0 0.00 0.00 0.00 54 1014.0
20260902093909 76 176 0.0 6.0 0.00 0.00 0.00 54 1013.8
20260902093404 77 234 2.0 5.0 0.00 0.00 0.00 54 1014.2
20260902092902 77 220 0.0 1.0 0.00 0.00 0.00 54 1014.2
20260902092358 77 115 1.0 5.0 0.00 0.00 0.00 54 1014.2
20260902091853 77 166 0.0 2.0 0.00 0.00 0.00 54 1014.2
20260902091348 77 263 2.0 3.0 0.00 0.00 0.00 53 1014.0
20260902090845 77 144 0.0 2.0 0.00 0.00 0.00 53 1014.2
20260902090344 77 192 4.0 7.0 0.00 0.00 0.00 53 1013.9
20260902085843 77 198 1.0 3.0 0.00 0.00 0.00 53 1014.1
20260902085339 77 260 3.0 3.0 0.00 0.00 0.00 53 1013.9
20260902084834 77 158 0.0 2.0 0.00 0.00 0.00 53 1014.0
20260902084331 77 183 3.0 6.0 0.00 0.00 0.00 53 1014.0
20260902083826 77 170 0.0 0.0 0.00 0.00 0.00 52 1014.1
20260902083326 77 185 0.0 5.0 0.00 0.00 0.00 52 1014.0
20260902082821 77 219 0.0 6.0 0.00 0.00 0.00 52 1013.8
20260902082317 77 174 0.0 0.0 0.00 0.00 0.00 52 1014.0
20260902081813 77 168 0.0 2.0 0.00 0.00 0.00 52 1014.0
20260902081309 77 142 0.0 3.0 0.00 0.00 0.00 52 1014.1
20260902080803 77 171 1.0 2.0 0.00 0.00 0.00 52 1014.2
20260902080301 77 191 2.0 5.0 0.00 0.00 0.00 52 1014.1
20260902075759 77 207 0.0 0.0 0.00 0.00 0.00 53 1014.1
20260902075256 77 170 0.0 0.0 0.00 0.00 0.00 52 1013.9
20260902074756 77 227 1.0 2.0 0.00 0.00 0.00 52 1013.9
20260902074251 78 179 0.0 3.0 0.00 0.00 0.00 52 1013.9
20260902073746 78 196 1.0 2.0 0.00 0.00 0.00 52 1013.8
20260902073242 78 202 2.0 5.0 0.00 0.00 0.00 52 1013.9
20260902072738 78 148 0.0 3.0 0.00 0.00 0.00 51 1013.9
20260902072234 78 117 1.0 5.0 0.00 0.00 0.00 51 1013.8
20260902071730 79 150 1.0 1.0 0.00 0.00 0.00 51 1013.9
20260902071225 79 245 3.0 3.0 0.00 0.00 0.00 50 1013.9
20260902070722 79 267 0.0 6.0 0.00 0.00 0.00 50 1013.8
20260902070220 79 205 3.0 3.0 0.00 0.00 0.00 49 1013.8
20260902065720 80 227 0.0 0.0 0.00 0.00 0.00 49 1014.0
20260902065215 80 212 1.0 6.0 0.00 0.00 0.00 49 1013.7
20260902064711 79 192 2.0 7.0 0.00 0.00 0.00 49 1013.8
20260902064206 79 200 0.0 3.0 0.00 0.00 0.00 49 1013.9
20260902063702 79 199 2.0 3.0 0.00 0.00 0.00 49 1013.9
20260902063156 79 169 1.0 5.0 0.00 0.00 0.00 50 1013.7
20260902062655 79 182 2.0 3.0 0.00 0.00 0.00 50 1013.9
20260902062151 79 193 3.0 5.0 0.00 0.00 0.00 50 1013.8
20260902061649 79 150 1.0 2.0 0.00 0.00 0.00 50 1013.8
20260902061145 79 168 1.0 2.0 0.00 0.00 0.00 50 1013.8
20260902060642 80 169 0.0 1.0 0.00 0.00 0.00 49 1013.8
20260902060138 80 133 1.0 2.0 0.00 0.00 0.00 49 1013.7
20260902055633 80 125 3.0 5.0 0.00 0.00 0.00 49 1013.7
20260902055129 80 141 2.0 3.0 0.00 0.00 0.00 48 1013.5
20260902054624 80 180 1.0 2.0 0.00 0.00 0.00 48 1013.7
20260902054120 81 271 1.0 3.0 0.00 0.00 0.00 48 1013.9
20260902053615 81 148 1.0 3.0 0.00 0.00 0.00 47 1013.9
20260902053114 81 171 0.0 2.0 0.00 0.00 0.00 47 1013.7
20260902052609 81 175 3.0 5.0 0.00 0.00 0.00 47 1013.7
20260902052104 81 148 2.0 6.0 0.00 0.00 0.00 47 1013.5
20260902051604 82 45 2.0 3.0 0.00 0.00 0.00 47 1013.7
20260902051058 82 127 0.0 0.0 0.00 0.00 0.00 47 1013.5
20260902050557 82 181 3.0 3.0 0.00 0.00 0.00 47 1013.5
20260902050053 82 68 1.0 6.0 0.00 0.00 0.00 47 1013.9
20260902045549 82 170 1.0 8.0 0.00 0.00 0.00 47 1013.7
20260902045045 82 214 2.0 6.0 0.00 0.00 0.00 47 1013.5
20260902044545 82 206 1.0 2.0 0.00 0.00 0.00 46 1013.3
20260902044040 82 83 2.0 6.0 0.00 0.00 0.00 46 1013.4
20260902043536 83 214 3.0 5.0 0.00 0.00 0.00 46 1013.5
20260902043031 83 119 0.0 7.0 0.00 0.00 0.00 46 1013.4
20260902042530 83 173 0.0 5.0 0.00 0.00 0.00 46 1013.5
20260902042025 83 157 1.0 5.0 0.00 0.00 0.00 47 1013.3
20260902041520 83 205 0.0 8.0 0.00 0.00 0.00 47 1013.5
20260902041014 83 118 1.0 3.0 0.00 0.00 0.00 47 1013.5
20260902040509 83 244 4.0 7.0 0.00 0.00 0.00 47 1013.4
20260902040009 83 160 1.0 7.0 0.00 0.00 0.00 47 1013.5
20260902035503 83 40 1.0 2.0 0.00 0.00 0.00 48 1013.4
20260902034956 83 165 1.0 5.0 0.00 0.00 0.00 48 1013.4
20260902034456 84 169 0.0 3.0 0.00 0.00 0.00 48 1013.4
20260902033951 84 281 2.0 5.0 0.00 0.00 0.00 47 1013.4
20260902033450 84 55 0.0 1.0 0.00 0.00 0.00 47 1013.3
20260902032949 84 157 2.0 6.0 0.00 0.00 0.00 47 1013.5
20260902032444 84 133 1.0 8.0 0.00 0.00 0.00 47 1013.2
20260902031939 84 171 4.0 7.0 0.00 0.00 0.00 48 1013.4
20260902031434 84 189 5.0 6.0 0.00 0.00 0.00 48 1013.3
20260902030931 84 108 1.0 3.0 0.00 0.00 0.00 48 1013.2
20260902030430 84 179 1.0 5.0 0.00 0.00 0.00 48 1013.1
20260902025929 85 146 0.0 2.0 0.00 0.00 0.00 48 1012.8
20260902025425 85 151 1.0 1.0 0.00 0.00 0.00 47 1013.2
20260902024920 85 190 2.0 3.0 0.00 0.00 0.00 47 1012.9
20260902024415 86 232 0.0 2.0 0.00 0.00 0.00 47 1012.8
20260902023910 86 180 0.0 5.0 0.00 0.00 0.00 46 1013.0
20260902023406 86 150 1.0 2.0 0.00 0.00 0.00 46 1012.7
20260902022905 87 117 1.0 3.0 0.00 0.00 0.00 45 1012.4
20260902022400 87 133 1.0 3.0 0.00 0.00 0.00 45 1012.6
20260902021856 87 182 1.0 5.0 0.00 0.00 0.00 44 1012.5
20260902021355 88 187 0.0 6.0 0.00 0.00 0.00 44 1012.5
20260902020851 88 145 1.0 3.0 0.00 0.00 0.00 44 1012.4
20260902020348 88 93 0.0 6.0 0.00 0.00 0.00 43 1012.2
20260902015843 88 156 1.0 3.0 0.00 0.00 0.00 44 1012.3
20260902015338 88 198 0.0 1.0 0.00 0.00 0.00 43 1012.2
20260902014834 88 159 0.0 0.0 0.00 0.00 0.00 43 1012.1
20260902014330 89 145 0.0 0.0 0.00 0.00 0.00 43 1012.1
20260902013829 89 126 3.0 5.0 0.00 0.00 0.00 42 1012.0
20260902013325 89 158 2.0 2.0 0.00 0.00 0.00 42 1012.2
20260902012820 90 127 1.0 3.0 0.00 0.00 0.00 41 1012.1
20260902012316 90 128 1.0 2.0 0.00 0.00 0.00 41 1011.7
20260902011811 90 163 0.0 2.0 0.00 0.00 0.00 41 1011.9
20260902011306 91 142 0.0 1.0 0.00 0.00 0.00 40 1012.0
20260902010805 91 143 0.0 6.0 0.00 0.00 0.00 40 1012.0
20260902010301 91 166 0.0 3.0 0.00 0.00 0.00 40 1012.1
20260902005759 91 167 1.0 2.0 0.00 0.00 0.00 39 1012.1
20260902005254 92 173 0.0 0.0 0.00 0.00 0.00 39 1011.7
20260902004749 92 141 1.0 2.0 0.00 0.00 0.00 39 1012.0
20260902004244 93 185 1.0 2.0 0.00 0.00 0.00 38 1012.0
20260902003739 94 140 0.0 3.0 0.00 0.00 0.00 36 1012.2
20260902003235 94 200 2.0 3.0 0.00 0.00 0.00 35 1012.1
20260902002730 95 195 0.0 3.0 0.00 0.00 0.00 34 1012.0
20260902002230 95 171 0.0 3.0 0.00 0.00 0.00 33 1012.1
20260902001726 96 103 3.0 8.0 0.00 0.00 0.00 33 1012.0
20260902001225 97 136 2.0 8.0 0.00 0.00 0.00 32 1012.0
20260902000720 97 192 2.0 6.0 0.00 0.00 0.00 32 1012.1
20260902000215 98 174 1.0 3.0 0.00 0.00 0.00 32 1012.0
20260901235715 98 163 0.0 5.0 0.00 0.00 0.00 31 1012.0
20260901235210 98 206 3.0 7.0 0.00 0.00 0.00 31 1011.9
20260901234709 98 127 1.0 6.0 0.00 0.00 0.00 31 1012.0
20260901234204 99 210 3.0 5.0 0.00 0.00 0.00 30 1012.2
20260901233658 99 176 1.0 6.0 0.00 0.00 0.00 30 1011.7
20260901233155 99 158 3.0 3.0 0.00 0.00 0.00 29 1011.9
20260901232649 99 198 2.0 5.0 0.00 0.00 0.00 29 1012.2
20260901230820 100 246 2.0 6.0 0.00 0.00 0.00 30 1012.4
20260901230319 100 246 2.0 6.0 0.00 0.00 0.00 30 1012.4
20260901225815 100 265 4.0 7.0 0.00 0.00 0.00 29 1012.3
20260901225314 100 265 4.0 7.0 0.00 0.00 0.00 29 1012.3
20260901224809 100 202 4.0 5.0 0.00 0.00 0.00 29 1012.4
20260901224306 101 200 1.0 6.0 0.00 0.00 0.00 28 1012.2
20260901223801 101 211 2.0 3.0 0.00 0.00 0.00 28 1012.2
20260901223256 101 216 4.0 5.0 0.00 0.00 0.00 28 1012.3